Year,Month,Day,Hour,Minute,Value (Times are PST for temperature in C)
2007,11,15,00,00,7.70
2007,11,15,00,01,7.70
2007,11,15,00,02,7.70
2007,11,15,00,03,7.70
2007,11,15,00,04,7.70
2007,11,15,00,05,7.70
2007,11,15,00,06,7.70
2007,11,15,00,07,7.70
2007,11,15,00,08,7.70
2007,11,15,00,09,7.70
2007,11,15,00,10,7.70
2007,11,15,00,11,7.70
2007,11,15,00,12,7.70
2007,11,15,00,13,7.70
2007,11,15,00,14,7.80
2007,11,15,00,15,7.80
2007,11,15,00,16,7.80
2007,11,15,00,17,7.80
2007,11,15,00,18,7.80
2007,11,15,00,19,7.80
2007,11,15,00,20,7.80
2007,11,15,00,21,7.80
2007,11,15,00,22,7.80
2007,11,15,00,23,7.80
2007,11,15,00,24,7.80
2007,11,15,00,25,7.80
2007,11,15,00,26,7.80
2007,11,15,00,27,7.80
2007,11,15,00,28,7.80
2007,11,15,00,29,7.80
2007,11,15,00,30,7.80
2007,11,15,00,31,7.80
2007,11,15,00,32,7.80
2007,11,15,00,33,7.80
2007,11,15,00,34,7.80
2007,11,15,00,35,7.80
2007,11,15,00,36,7.80
2007,11,15,00,37,7.80
2007,11,15,00,38,7.80
2007,11,15,00,39,7.80
2007,11,15,00,40,7.80
2007,11,15,00,41,7.80
2007,11,15,00,42,7.80
2007,11,15,00,43,7.80
2007,11,15,00,44,7.80
2007,11,15,00,45,7.80
2007,11,15,00,46,7.90
2007,11,15,00,47,7.90
2007,11,15,00,48,7.90
2007,11,15,00,49,8.00
2007,11,15,00,50,8.00
2007,11,15,00,51,8.00
2007,11,15,00,52,8.00
2007,11,15,00,53,8.10
2007,11,15,00,54,8.10
2007,11,15,00,55,8.00
2007,11,15,00,56,8.00
2007,11,15,00,57,8.00
2007,11,15,00,58,7.90
2007,11,15,00,59,7.90
2007,11,15,01,00,7.90
2007,11,15,01,01,7.90
2007,11,15,01,02,7.90
2007,11,15,01,03,7.90
2007,11,15,01,04,7.90
2007,11,15,01,05,7.90
2007,11,15,01,06,7.90
2007,11,15,01,07,7.90
2007,11,15,01,08,7.90
2007,11,15,01,09,7.90
2007,11,15,01,10,7.90
2007,11,15,01,11,7.90
2007,11,15,01,12,7.90
2007,11,15,01,13,8.00
2007,11,15,01,14,8.00
2007,11,15,01,15,8.00
2007,11,15,01,16,8.00
2007,11,15,01,17,8.00
2007,11,15,01,18,8.00
2007,11,15,01,19,8.00
2007,11,15,01,20,8.00
2007,11,15,01,21,8.00
2007,11,15,01,22,8.00
2007,11,15,01,23,8.00
2007,11,15,01,24,8.00
2007,11,15,01,25,8.10
2007,11,15,01,26,8.00
2007,11,15,01,27,8.00
2007,11,15,01,28,8.10
2007,11,15,01,29,8.10
2007,11,15,01,30,8.10
2007,11,15,01,31,8.10
2007,11,15,01,32,8.00
2007,11,15,01,33,8.00
2007,11,15,01,34,7.90
2007,11,15,01,35,7.90
2007,11,15,01,36,7.90
2007,11,15,01,37,7.90
2007,11,15,01,38,7.90
2007,11,15,01,39,7.90
2007,11,15,01,40,8.00
2007,11,15,01,41,8.00
2007,11,15,01,42,7.90
2007,11,15,01,43,7.90
2007,11,15,01,44,7.90
2007,11,15,01,45,7.90
2007,11,15,01,46,7.90
2007,11,15,01,47,7.90
2007,11,15,01,48,7.90
2007,11,15,01,49,7.90
2007,11,15,01,50,7.90
2007,11,15,01,51,7.80
2007,11,15,01,52,7.80
2007,11,15,01,53,7.80
2007,11,15,01,54,7.80
2007,11,15,01,55,7.80
2007,11,15,01,56,7.80
2007,11,15,01,57,7.80
2007,11,15,01,58,7.80
2007,11,15,01,59,7.80
2007,11,15,02,00,7.80
2007,11,15,02,01,7.90
2007,11,15,02,02,7.90
2007,11,15,02,03,7.90
2007,11,15,02,04,7.90
2007,11,15,02,05,8.00
2007,11,15,02,06,8.00
2007,11,15,02,07,8.00
2007,11,15,02,08,8.00
2007,11,15,02,09,8.00
2007,11,15,02,10,8.00
2007,11,15,02,11,8.00
2007,11,15,02,12,8.10
2007,11,15,02,13,8.10
2007,11,15,02,14,8.10
2007,11,15,02,15,8.20
2007,11,15,02,16,8.20
2007,11,15,02,17,8.20
2007,11,15,02,18,8.20
2007,11,15,02,19,8.30
2007,11,15,02,20,8.30
2007,11,15,02,21,8.30
2007,11,15,02,22,8.30
2007,11,15,02,23,8.30
2007,11,15,02,24,8.30
2007,11,15,02,25,8.30
2007,11,15,02,26,8.30
2007,11,15,02,27,8.40
2007,11,15,02,28,8.40
2007,11,15,02,29,8.40
2007,11,15,02,30,8.40
2007,11,15,02,31,8.40
2007,11,15,02,32,8.40
2007,11,15,02,33,8.40
2007,11,15,02,34,8.50
2007,11,15,02,35,8.50
2007,11,15,02,36,8.50
2007,11,15,02,37,8.50
2007,11,15,02,38,8.50
2007,11,15,02,39,8.50
2007,11,15,02,40,8.50
2007,11,15,02,41,8.50
2007,11,15,02,42,8.50
2007,11,15,02,43,8.60
2007,11,15,02,44,8.50
2007,11,15,02,45,8.50
2007,11,15,02,46,8.60
2007,11,15,02,47,8.50
2007,11,15,02,48,8.50
2007,11,15,02,49,8.50
2007,11,15,02,50,8.50
2007,11,15,02,51,8.50
2007,11,15,02,52,8.60
2007,11,15,02,53,8.50
2007,11,15,02,54,8.50
2007,11,15,02,55,8.50
2007,11,15,02,56,8.40
2007,11,15,02,57,8.40
2007,11,15,02,58,8.40
2007,11,15,02,59,8.40
2007,11,15,03,00,8.40
2007,11,15,03,01,8.40
2007,11,15,03,02,8.40
2007,11,15,03,03,8.50
2007,11,15,03,04,8.50
2007,11,15,03,05,8.60
2007,11,15,03,06,8.60
2007,11,15,03,07,8.60
2007,11,15,03,08,8.60
2007,11,15,03,09,8.60
2007,11,15,03,10,8.60
2007,11,15,03,11,8.60
2007,11,15,03,12,8.80
2007,11,15,03,13,8.90
2007,11,15,03,14,8.90
2007,11,15,03,15,9.00
2007,11,15,03,16,9.10
2007,11,15,03,17,9.20
2007,11,15,03,18,9.30
2007,11,15,03,19,9.50
2007,11,15,03,20,9.70
2007,11,15,03,21,9.80
2007,11,15,03,22,9.90
2007,11,15,03,23,10.00
2007,11,15,03,24,10.20
2007,11,15,03,25,10.30
2007,11,15,03,26,10.50
2007,11,15,03,27,10.70
2007,11,15,03,28,10.80
2007,11,15,03,29,10.80
2007,11,15,03,30,11.00
2007,11,15,03,31,11.00
2007,11,15,03,32,11.10
2007,11,15,03,33,11.20
2007,11,15,03,34,11.30
2007,11,15,03,35,11.30
2007,11,15,03,36,11.40
2007,11,15,03,37,11.40
2007,11,15,03,38,11.40
2007,11,15,03,39,11.50
2007,11,15,03,40,11.60
2007,11,15,03,41,11.70
2007,11,15,03,42,11.70
2007,11,15,03,43,11.70
2007,11,15,03,44,11.70
2007,11,15,03,45,11.70
2007,11,15,03,46,11.70
2007,11,15,03,47,11.70
2007,11,15,03,48,11.70
2007,11,15,03,49,11.70
2007,11,15,03,50,11.70
2007,11,15,03,51,11.70
2007,11,15,03,52,11.70
2007,11,15,03,53,11.60
2007,11,15,03,54,11.60
2007,11,15,03,55,11.70
2007,11,15,03,56,11.70
2007,11,15,03,57,11.70
2007,11,15,03,58,11.70
2007,11,15,03,59,11.70
2007,11,15,04,00,11.70
2007,11,15,04,01,11.80
2007,11,15,04,02,11.80
2007,11,15,04,03,11.80
2007,11,15,04,04,11.80
2007,11,15,04,05,11.80
2007,11,15,04,06,11.70
2007,11,15,04,07,11.80
2007,11,15,04,08,11.80
2007,11,15,04,09,11.80
2007,11,15,04,10,11.80
2007,11,15,04,11,11.80
2007,11,15,04,12,11.80
2007,11,15,04,13,11.70
2007,11,15,04,14,11.70
2007,11,15,04,15,11.80
2007,11,15,04,16,11.80
2007,11,15,04,17,11.80
2007,11,15,04,18,11.80
2007,11,15,04,19,11.80
2007,11,15,04,20,11.80
2007,11,15,04,21,11.80
2007,11,15,04,22,11.80
2007,11,15,04,23,11.80
2007,11,15,04,24,11.80
2007,11,15,04,25,11.80
2007,11,15,04,26,11.80
2007,11,15,04,27,11.80
2007,11,15,04,28,11.90
2007,11,15,04,29,11.90
2007,11,15,04,30,11.90
2007,11,15,04,31,11.90
2007,11,15,04,32,11.90
2007,11,15,04,33,12.00
2007,11,15,04,34,12.10
2007,11,15,04,35,12.10
2007,11,15,04,36,12.10
2007,11,15,04,37,12.10
2007,11,15,04,38,12.10
2007,11,15,04,39,12.10
2007,11,15,04,40,12.10
2007,11,15,04,41,12.10
2007,11,15,04,42,12.10
2007,11,15,04,43,12.10
2007,11,15,04,44,12.10
2007,11,15,04,45,12.00
2007,11,15,04,46,12.00
2007,11,15,04,47,12.00
2007,11,15,04,48,12.00
2007,11,15,04,49,12.00
2007,11,15,04,50,12.00
2007,11,15,04,51,12.00
2007,11,15,04,52,11.90
2007,11,15,04,53,11.90
2007,11,15,04,54,11.90
2007,11,15,04,55,11.90
2007,11,15,04,56,11.90
2007,11,15,04,57,11.90
2007,11,15,04,58,11.90
2007,11,15,04,59,11.90
2007,11,15,05,00,11.90
2007,11,15,05,01,11.90
2007,11,15,05,02,11.90
2007,11,15,05,03,12.00
2007,11,15,05,04,11.90
2007,11,15,05,05,11.90
2007,11,15,05,06,11.90
2007,11,15,05,07,11.90
2007,11,15,05,08,11.90
2007,11,15,05,09,11.90
2007,11,15,05,10,11.90
2007,11,15,05,11,11.90
2007,11,15,05,12,11.90
2007,11,15,05,13,11.90
2007,11,15,05,14,11.90
2007,11,15,05,15,11.90
2007,11,15,05,16,11.90
2007,11,15,05,17,11.90
2007,11,15,05,18,11.90
2007,11,15,05,19,11.90
2007,11,15,05,20,11.90
2007,11,15,05,21,11.80
2007,11,15,05,22,11.80
2007,11,15,05,23,11.90
2007,11,15,05,24,11.90
2007,11,15,05,25,11.90
2007,11,15,05,26,11.90
2007,11,15,05,27,11.90
2007,11,15,05,28,11.90
2007,11,15,05,29,11.90
2007,11,15,05,30,11.90
2007,11,15,05,31,11.90
2007,11,15,05,32,11.90
2007,11,15,05,33,11.90
2007,11,15,05,34,11.80
2007,11,15,05,35,11.80
2007,11,15,05,36,11.80
2007,11,15,05,37,11.80
2007,11,15,05,38,11.80
2007,11,15,05,39,11.70
2007,11,15,05,40,11.70
2007,11,15,05,41,11.70
2007,11,15,05,42,11.70
2007,11,15,05,43,11.70
2007,11,15,05,44,11.70
2007,11,15,05,45,11.70
2007,11,15,05,46,11.70
2007,11,15,05,47,11.60
2007,11,15,05,48,11.60
2007,11,15,05,49,11.60
2007,11,15,05,50,11.60
2007,11,15,05,51,11.60
2007,11,15,05,52,11.60
2007,11,15,05,53,11.50
2007,11,15,05,54,11.50
2007,11,15,05,55,11.50
2007,11,15,05,56,11.50
2007,11,15,05,57,11.50
2007,11,15,05,58,11.50
2007,11,15,05,59,11.60
2007,11,15,06,00,11.60
2007,11,15,06,01,11.60
2007,11,15,06,02,11.60
2007,11,15,06,03,11.50
2007,11,15,06,04,11.50
2007,11,15,06,05,11.50
2007,11,15,06,06,11.50
2007,11,15,06,07,11.50
2007,11,15,06,08,11.60
2007,11,15,06,09,11.50
2007,11,15,06,10,11.50
2007,11,15,06,11,11.50
2007,11,15,06,12,11.50
2007,11,15,06,13,11.50
2007,11,15,06,14,11.50
2007,11,15,06,15,11.50
2007,11,15,06,16,11.50
2007,11,15,06,17,11.50
2007,11,15,06,18,11.40
2007,11,15,06,19,11.40
2007,11,15,06,20,11.40
2007,11,15,06,21,11.40
2007,11,15,06,22,11.30
2007,11,15,06,23,11.30
2007,11,15,06,24,11.30
2007,11,15,06,25,11.30
2007,11,15,06,26,11.20
2007,11,15,06,27,11.20
2007,11,15,06,28,11.20
2007,11,15,06,29,11.20
2007,11,15,06,30,11.20
2007,11,15,06,31,11.20
2007,11,15,06,32,11.20
2007,11,15,06,33,11.10
2007,11,15,06,34,11.10
2007,11,15,06,35,11.10
2007,11,15,06,36,11.10
2007,11,15,06,37,11.10
2007,11,15,06,38,11.10
2007,11,15,06,39,11.10
2007,11,15,06,40,11.10
2007,11,15,06,41,11.10
2007,11,15,06,42,11.20
2007,11,15,06,43,11.20
2007,11,15,06,44,11.20
2007,11,15,06,45,11.20
2007,11,15,06,46,11.20
2007,11,15,06,47,11.20
2007,11,15,06,48,11.20
2007,11,15,06,49,11.20
2007,11,15,06,50,11.20
2007,11,15,06,51,11.20
2007,11,15,06,52,11.20
2007,11,15,06,53,11.20
2007,11,15,06,54,11.20
2007,11,15,06,55,11.20
2007,11,15,06,56,11.20
2007,11,15,06,57,11.20
2007,11,15,06,58,11.20
2007,11,15,06,59,11.20
2007,11,15,07,00,11.10
2007,11,15,07,01,11.10
2007,11,15,07,02,11.10
2007,11,15,07,03,11.10
2007,11,15,07,04,11.00
2007,11,15,07,05,10.90
2007,11,15,07,06,10.90
2007,11,15,07,07,10.80
2007,11,15,07,08,10.80
2007,11,15,07,09,10.80
2007,11,15,07,10,10.70
2007,11,15,07,11,10.70
2007,11,15,07,12,10.70
2007,11,15,07,13,10.60
2007,11,15,07,14,10.60
2007,11,15,07,15,10.50
2007,11,15,07,16,10.50
2007,11,15,07,17,10.50
2007,11,15,07,18,10.40
2007,11,15,07,19,10.40
2007,11,15,07,20,10.40
2007,11,15,07,21,10.30
2007,11,15,07,22,10.30
2007,11,15,07,23,10.30
2007,11,15,07,24,10.30
2007,11,15,07,25,10.20
2007,11,15,07,26,10.20
2007,11,15,07,27,10.20
2007,11,15,07,28,10.20
2007,11,15,07,29,10.10
2007,11,15,07,30,10.10
2007,11,15,07,31,10.00
2007,11,15,07,32,10.00
2007,11,15,07,33,10.00
2007,11,15,07,34,9.90
2007,11,15,07,35,9.90
2007,11,15,07,36,9.90
2007,11,15,07,37,9.90
2007,11,15,07,38,9.90
2007,11,15,07,39,9.90
2007,11,15,07,40,9.90
2007,11,15,07,41,9.80
2007,11,15,07,42,9.80
2007,11,15,07,43,9.80
2007,11,15,07,44,9.80
2007,11,15,07,45,9.80
2007,11,15,07,46,9.80
2007,11,15,07,47,9.80
2007,11,15,07,48,9.90
2007,11,15,07,49,9.90
2007,11,15,07,50,9.90
2007,11,15,07,51,9.90
2007,11,15,07,52,9.90
2007,11,15,07,53,9.90
2007,11,15,07,54,9.90
2007,11,15,07,55,9.90
2007,11,15,07,56,9.90
2007,11,15,07,57,9.90
2007,11,15,07,58,9.90
2007,11,15,07,59,9.90
2007,11,15,08,00,9.90
2007,11,15,08,01,9.90
2007,11,15,08,02,9.90
2007,11,15,08,03,9.90
2007,11,15,08,04,9.90
2007,11,15,08,05,9.90
2007,11,15,08,06,9.90
2007,11,15,08,07,9.90
2007,11,15,08,08,9.90
2007,11,15,08,09,9.90
2007,11,15,08,10,9.90
2007,11,15,08,11,9.90
2007,11,15,08,12,9.90
2007,11,15,08,13,9.90
2007,11,15,08,14,9.80
2007,11,15,08,15,9.90
2007,11,15,08,16,9.80
2007,11,15,08,17,9.80
2007,11,15,08,18,9.80
2007,11,15,08,19,9.80
2007,11,15,08,20,9.80
2007,11,15,08,21,9.80
2007,11,15,08,22,9.80
2007,11,15,08,23,9.80
2007,11,15,08,24,9.90
2007,11,15,08,25,9.80
2007,11,15,08,26,9.80
2007,11,15,08,27,9.80
2007,11,15,08,28,9.80
2007,11,15,08,29,9.80
2007,11,15,08,30,9.80
2007,11,15,08,31,9.80
2007,11,15,08,32,9.80
2007,11,15,08,33,9.80
2007,11,15,08,34,9.80
2007,11,15,08,35,9.80
2007,11,15,08,36,9.70
2007,11,15,08,37,9.70
2007,11,15,08,38,9.70
2007,11,15,08,39,9.70
2007,11,15,08,40,9.70
2007,11,15,08,41,9.70
2007,11,15,08,42,9.70
2007,11,15,08,43,9.80
2007,11,15,08,44,9.80
2007,11,15,08,45,9.80
2007,11,15,08,46,9.80
2007,11,15,08,47,9.80
2007,11,15,08,48,9.80
2007,11,15,08,49,9.80
2007,11,15,08,50,9.80
2007,11,15,08,51,9.80
2007,11,15,08,52,9.80
2007,11,15,08,53,9.80
2007,11,15,08,54,9.80
2007,11,15,08,55,9.80
2007,11,15,08,56,9.70
2007,11,15,08,57,9.70
2007,11,15,08,58,9.70
2007,11,15,08,59,9.70
2007,11,15,09,00,9.70
2007,11,15,09,01,9.70
2007,11,15,09,02,9.70
2007,11,15,09,03,9.70
2007,11,15,09,04,9.70
2007,11,15,09,05,9.70
2007,11,15,09,06,9.70
2007,11,15,09,07,9.70
2007,11,15,09,08,9.70
2007,11,15,09,09,9.80
2007,11,15,09,10,9.80
2007,11,15,09,11,9.80
2007,11,15,09,12,9.80
2007,11,15,09,13,9.80
2007,11,15,09,14,9.80
2007,11,15,09,15,9.80
2007,11,15,09,16,9.80
2007,11,15,09,17,9.80
2007,11,15,09,18,9.80
2007,11,15,09,19,9.80
2007,11,15,09,20,9.80
2007,11,15,09,21,9.80
2007,11,15,09,22,9.80
2007,11,15,09,23,9.80
2007,11,15,09,24,9.90
2007,11,15,09,25,9.90
2007,11,15,09,26,9.90
2007,11,15,09,27,9.90
2007,11,15,09,28,9.90
2007,11,15,09,29,10.00
2007,11,15,09,30,10.00
2007,11,15,09,31,10.00
2007,11,15,09,32,10.00
2007,11,15,09,33,10.10
2007,11,15,09,34,10.10
2007,11,15,09,35,10.10
2007,11,15,09,36,10.10
2007,11,15,09,37,10.20
2007,11,15,09,38,10.20
2007,11,15,09,39,10.20
2007,11,15,09,40,10.20
2007,11,15,09,41,10.20
2007,11,15,09,42,10.20
2007,11,15,09,43,10.20
2007,11,15,09,44,10.20
2007,11,15,09,45,10.20
2007,11,15,09,46,10.30
2007,11,15,09,47,10.30
2007,11,15,09,48,10.30
2007,11,15,09,49,10.30
2007,11,15,09,50,10.30
2007,11,15,09,51,10.30
2007,11,15,09,52,10.40
2007,11,15,09,53,10.40
2007,11,15,09,54,10.40
2007,11,15,09,55,10.40
2007,11,15,09,56,10.40
2007,11,15,09,57,10.50
2007,11,15,09,58,10.50
2007,11,15,09,59,10.60
2007,11,15,10,00,10.60
2007,11,15,10,01,10.60
2007,11,15,10,02,10.60
2007,11,15,10,03,10.60
2007,11,15,10,04,10.60
2007,11,15,10,05,10.60
2007,11,15,10,06,10.70
2007,11,15,10,07,10.70
2007,11,15,10,08,10.70
2007,11,15,10,09,10.70
2007,11,15,10,10,10.70
2007,11,15,10,11,10.70
2007,11,15,10,12,10.70
2007,11,15,10,13,10.70
2007,11,15,10,14,10.70
2007,11,15,10,15,10.70
2007,11,15,10,16,10.70
2007,11,15,10,17,10.70
2007,11,15,10,18,10.70
2007,11,15,10,19,10.70
2007,11,15,10,20,10.70
2007,11,15,10,21,10.80
2007,11,15,10,22,10.80
2007,11,15,10,23,10.80
2007,11,15,10,24,10.80
2007,11,15,10,25,10.80
2007,11,15,10,26,10.80
2007,11,15,10,27,10.80
2007,11,15,10,28,10.80
2007,11,15,10,29,10.80
2007,11,15,10,30,10.80
2007,11,15,10,31,10.80
2007,11,15,10,32,10.80
2007,11,15,10,33,10.80
2007,11,15,10,34,10.80
2007,11,15,10,35,10.80
2007,11,15,10,36,10.80
2007,11,15,10,37,10.80
2007,11,15,10,38,10.80
2007,11,15,10,39,10.80
2007,11,15,10,40,10.80
2007,11,15,10,41,10.80
2007,11,15,10,42,10.80
2007,11,15,10,43,10.80
2007,11,15,10,44,10.80
2007,11,15,10,45,10.80
2007,11,15,10,46,10.80
2007,11,15,10,47,10.80
2007,11,15,10,48,10.90
2007,11,15,10,49,10.90
2007,11,15,10,50,10.90
2007,11,15,10,51,10.90
2007,11,15,10,52,10.90
2007,11,15,10,53,10.90
2007,11,15,10,54,10.90
2007,11,15,10,55,10.90
2007,11,15,10,56,10.90
2007,11,15,10,57,10.90
2007,11,15,10,58,11.00
2007,11,15,10,59,11.00
2007,11,15,11,00,10.90
2007,11,15,11,01,10.90
2007,11,15,11,02,10.90
2007,11,15,11,03,10.90
2007,11,15,11,04,11.00
2007,11,15,11,05,11.00
2007,11,15,11,06,10.90
2007,11,15,11,07,10.90
2007,11,15,11,08,10.90
2007,11,15,11,09,10.90
2007,11,15,11,10,10.90
2007,11,15,11,11,10.90
2007,11,15,11,12,10.90
2007,11,15,11,13,10.90
2007,11,15,11,14,10.90
2007,11,15,11,15,11.00
2007,11,15,11,16,11.00
2007,11,15,11,17,11.00
2007,11,15,11,18,11.00
2007,11,15,11,19,11.10
2007,11,15,11,20,11.10
2007,11,15,11,21,11.10
2007,11,15,11,22,11.10
2007,11,15,11,23,11.10
2007,11,15,11,24,11.10
2007,11,15,11,25,11.20
2007,11,15,11,26,11.20
2007,11,15,11,27,11.20
2007,11,15,11,28,11.20
2007,11,15,11,29,11.20
2007,11,15,11,30,11.20
2007,11,15,11,31,11.20
2007,11,15,11,32,11.20
2007,11,15,11,33,11.20
2007,11,15,11,34,11.20
2007,11,15,11,35,11.30
2007,11,15,11,36,11.30
2007,11,15,11,37,11.30
2007,11,15,11,38,11.30
2007,11,15,11,39,11.30
2007,11,15,11,40,11.30
2007,11,15,11,41,11.30
2007,11,15,11,42,11.40
2007,11,15,11,43,11.40
2007,11,15,11,44,11.40
2007,11,15,11,45,11.40
2007,11,15,11,46,11.40
2007,11,15,11,47,11.40
2007,11,15,11,48,11.40
2007,11,15,11,49,11.40
2007,11,15,11,50,11.40
2007,11,15,11,51,11.50
2007,11,15,11,52,11.50
2007,11,15,11,53,11.50
2007,11,15,11,54,11.50
2007,11,15,11,55,11.60
2007,11,15,11,56,11.60
2007,11,15,11,57,11.60
2007,11,15,11,58,11.60
2007,11,15,11,59,11.60
2007,11,15,12,00,11.60
2007,11,15,12,01,11.50
2007,11,15,12,02,11.50
2007,11,15,12,03,11.50
2007,11,15,12,04,11.40
2007,11,15,12,05,11.40
2007,11,15,12,06,11.40
2007,11,15,12,07,11.40
2007,11,15,12,08,11.30
2007,11,15,12,09,11.30
2007,11,15,12,10,11.30
2007,11,15,12,11,11.30
2007,11,15,12,12,11.30
2007,11,15,12,13,11.30
2007,11,15,12,14,11.30
2007,11,15,12,15,11.30
2007,11,15,12,16,11.30
2007,11,15,12,17,11.30
2007,11,15,12,18,11.30
2007,11,15,12,19,11.30
2007,11,15,12,20,11.30
2007,11,15,12,21,11.30
2007,11,15,12,22,11.30
2007,11,15,12,23,11.30
2007,11,15,12,24,11.30
2007,11,15,12,25,11.30
2007,11,15,12,26,11.30
2007,11,15,12,27,11.30
2007,11,15,12,28,11.30
2007,11,15,12,29,11.30
2007,11,15,12,30,11.30
2007,11,15,12,31,11.30
2007,11,15,12,32,11.30
2007,11,15,12,33,11.20
2007,11,15,12,34,11.20
2007,11,15,12,35,11.20
2007,11,15,12,36,11.10
2007,11,15,12,37,11.10
2007,11,15,12,38,11.10
2007,11,15,12,39,11.00
2007,11,15,12,40,11.00
2007,11,15,12,41,11.00
2007,11,15,12,42,11.00
2007,11,15,12,43,11.00
2007,11,15,12,44,11.00
2007,11,15,12,45,11.00
2007,11,15,12,46,11.00
2007,11,15,12,47,10.90
2007,11,15,12,48,10.90
2007,11,15,12,49,10.90
2007,11,15,12,50,10.90
2007,11,15,12,51,10.90
2007,11,15,12,52,10.90
2007,11,15,12,53,10.90
2007,11,15,12,54,10.90
2007,11,15,12,55,10.90
2007,11,15,12,56,10.90
2007,11,15,12,57,10.90
2007,11,15,12,58,10.90
2007,11,15,12,59,10.90
2007,11,15,13,00,10.90
2007,11,15,13,01,10.90
2007,11,15,13,02,10.90
2007,11,15,13,03,10.80
2007,11,15,13,04,10.80
2007,11,15,13,05,10.80
2007,11,15,13,06,10.80
2007,11,15,13,07,10.80
2007,11,15,13,08,10.80
2007,11,15,13,09,10.80
2007,11,15,13,10,10.80
2007,11,15,13,11,10.70
2007,11,15,13,12,10.70
2007,11,15,13,13,10.70
2007,11,15,13,14,10.70
2007,11,15,13,15,10.70
2007,11,15,13,16,10.70
2007,11,15,13,17,10.70
2007,11,15,13,18,10.70
2007,11,15,13,19,10.70
2007,11,15,13,20,10.70
2007,11,15,13,21,10.70
2007,11,15,13,22,10.70
2007,11,15,13,23,10.60
2007,11,15,13,24,10.60
2007,11,15,13,25,10.60
2007,11,15,13,26,10.60
2007,11,15,13,27,10.50
2007,11,15,13,28,10.50
2007,11,15,13,29,10.40
2007,11,15,13,30,10.40
2007,11,15,13,31,10.40
2007,11,15,13,32,10.40
2007,11,15,13,33,10.40
2007,11,15,13,34,10.40
2007,11,15,13,35,10.40
2007,11,15,13,36,10.40
2007,11,15,13,37,10.40
2007,11,15,13,38,10.30
2007,11,15,13,39,10.30
2007,11,15,13,40,10.30
2007,11,15,13,41,10.30
2007,11,15,13,42,10.30
2007,11,15,13,43,10.30
2007,11,15,13,44,10.30
2007,11,15,13,45,10.30
2007,11,15,13,46,10.30
2007,11,15,13,47,10.30
2007,11,15,13,48,10.20
2007,11,15,13,49,10.20
2007,11,15,13,50,10.20
2007,11,15,13,51,10.20
2007,11,15,13,52,10.20
2007,11,15,13,53,10.20
2007,11,15,13,54,10.20
2007,11,15,13,55,10.20
2007,11,15,13,56,10.20
2007,11,15,13,57,10.20
2007,11,15,13,58,10.20
2007,11,15,13,59,10.20
2007,11,15,14,00,10.20
2007,11,15,14,01,10.10
2007,11,15,14,02,10.10
2007,11,15,14,03,10.10
2007,11,15,14,04,10.10
2007,11,15,14,05,10.00
2007,11,15,14,06,10.00
2007,11,15,14,07,9.90
2007,11,15,14,08,9.90
2007,11,15,14,09,9.90
2007,11,15,14,10,9.80
2007,11,15,14,11,9.80
2007,11,15,14,12,9.80
2007,11,15,14,13,9.80
2007,11,15,14,14,9.80
2007,11,15,14,15,9.80
2007,11,15,14,16,9.80
2007,11,15,14,17,9.80
2007,11,15,14,18,9.80
2007,11,15,14,19,9.80
2007,11,15,14,20,9.80
2007,11,15,14,21,9.80
2007,11,15,14,22,9.80
2007,11,15,14,23,9.90
2007,11,15,14,24,9.90
2007,11,15,14,25,9.90
2007,11,15,14,26,9.90
2007,11,15,14,27,9.90
2007,11,15,14,28,9.90
2007,11,15,14,29,9.90
2007,11,15,14,30,9.90
2007,11,15,14,31,9.90
2007,11,15,14,32,9.90
2007,11,15,14,33,9.90
2007,11,15,14,34,9.90
2007,11,15,14,35,9.90
2007,11,15,14,36,9.90
2007,11,15,14,37,9.90
2007,11,15,14,38,9.90
2007,11,15,14,39,9.90
2007,11,15,14,40,9.90
2007,11,15,14,41,9.90
2007,11,15,14,42,9.90
2007,11,15,14,43,9.80
2007,11,15,14,44,9.80
2007,11,15,14,45,9.80
2007,11,15,14,46,9.80
2007,11,15,14,47,9.80
2007,11,15,14,48,9.90
2007,11,15,14,49,9.90
2007,11,15,14,50,9.90
2007,11,15,14,51,9.90
2007,11,15,14,52,9.90
2007,11,15,14,53,9.90
2007,11,15,14,54,9.90
2007,11,15,14,55,9.90
2007,11,15,14,56,9.90
2007,11,15,14,57,9.90
2007,11,15,14,58,9.90
2007,11,15,14,59,9.90
2007,11,15,15,00,9.90
2007,11,15,15,01,9.90
2007,11,15,15,02,9.90
2007,11,15,15,03,9.80
2007,11,15,15,04,9.80
2007,11,15,15,05,9.80
2007,11,15,15,06,9.80
2007,11,15,15,07,9.80
2007,11,15,15,08,9.70
2007,11,15,15,09,9.70
2007,11,15,15,10,9.70
2007,11,15,15,11,9.70
2007,11,15,15,12,9.70
2007,11,15,15,13,9.70
2007,11,15,15,14,9.70
2007,11,15,15,15,9.70
2007,11,15,15,16,9.70
2007,11,15,15,17,9.70
2007,11,15,15,18,9.70
2007,11,15,15,19,9.70
2007,11,15,15,20,9.70
2007,11,15,15,21,9.70
2007,11,15,15,22,9.70
2007,11,15,15,23,9.70
2007,11,15,15,24,9.70
2007,11,15,15,25,9.70
2007,11,15,15,26,9.70
2007,11,15,15,27,9.70
2007,11,15,15,28,9.70
2007,11,15,15,29,9.70
2007,11,15,15,30,9.70
2007,11,15,15,31,9.70
2007,11,15,15,32,9.70
2007,11,15,15,33,9.70
2007,11,15,15,34,9.70
2007,11,15,15,35,9.70
2007,11,15,15,36,9.70
2007,11,15,15,37,9.60
2007,11,15,15,38,9.60
2007,11,15,15,39,9.60
2007,11,15,15,40,9.60
2007,11,15,15,41,9.60
2007,11,15,15,42,9.60
2007,11,15,15,43,9.60
2007,11,15,15,44,9.50
2007,11,15,15,45,9.50
2007,11,15,15,46,9.50
2007,11,15,15,47,9.50
2007,11,15,15,48,9.50
2007,11,15,15,49,9.50
2007,11,15,15,50,9.50
2007,11,15,15,51,9.50
2007,11,15,15,52,9.50
2007,11,15,15,53,9.50
2007,11,15,15,54,9.40
2007,11,15,15,55,9.40
2007,11,15,15,56,9.40
2007,11,15,15,57,9.40
2007,11,15,15,58,9.40
2007,11,15,15,59,9.40
2007,11,15,16,00,9.40
2007,11,15,16,01,9.40
2007,11,15,16,02,9.40
2007,11,15,16,03,9.40
2007,11,15,16,04,9.40
2007,11,15,16,05,9.40
2007,11,15,16,06,9.40
2007,11,15,16,07,9.40
2007,11,15,16,08,9.40
2007,11,15,16,09,9.40
2007,11,15,16,10,9.40
2007,11,15,16,11,9.40
2007,11,15,16,12,9.40
2007,11,15,16,13,9.40
2007,11,15,16,14,9.40
2007,11,15,16,15,9.40
2007,11,15,16,16,9.40
2007,11,15,16,17,9.40
2007,11,15,16,18,9.30
2007,11,15,16,19,9.30
2007,11,15,16,20,9.30
2007,11,15,16,21,9.30
2007,11,15,16,22,9.30
2007,11,15,16,23,9.30
2007,11,15,16,24,9.30
2007,11,15,16,25,9.30
2007,11,15,16,26,9.30
2007,11,15,16,27,9.20
2007,11,15,16,28,9.20
2007,11,15,16,29,9.20
2007,11,15,16,30,9.20
2007,11,15,16,31,9.10
2007,11,15,16,32,9.10
2007,11,15,16,33,9.10
2007,11,15,16,34,9.10
2007,11,15,16,35,9.10
2007,11,15,16,36,9.10
2007,11,15,16,37,9.00
2007,11,15,16,38,9.00
2007,11,15,16,39,9.00
2007,11,15,16,40,9.00
2007,11,15,16,41,9.00
2007,11,15,16,42,9.00
2007,11,15,16,43,8.90
2007,11,15,16,44,8.90
2007,11,15,16,45,8.90
2007,11,15,16,46,8.90
2007,11,15,16,47,8.90
2007,11,15,16,48,8.90
2007,11,15,16,49,8.90
2007,11,15,16,50,8.90
2007,11,15,16,51,8.90
2007,11,15,16,52,8.90
2007,11,15,16,53,8.90
2007,11,15,16,54,8.90
2007,11,15,16,55,8.80
2007,11,15,16,56,8.80
2007,11,15,16,57,8.80
2007,11,15,16,58,8.80
2007,11,15,16,59,8.80
2007,11,15,17,00,8.80
2007,11,15,17,01,8.80
2007,11,15,17,02,8.80
2007,11,15,17,03,8.80
2007,11,15,17,04,8.80
2007,11,15,17,05,8.80
2007,11,15,17,06,8.80
2007,11,15,17,07,8.80
2007,11,15,17,08,8.80
2007,11,15,17,09,8.80
2007,11,15,17,10,8.70
2007,11,15,17,11,8.70
2007,11,15,17,12,8.70
2007,11,15,17,13,8.70
2007,11,15,17,14,8.70
2007,11,15,17,15,8.70
2007,11,15,17,16,8.70
2007,11,15,17,17,8.70
2007,11,15,17,18,8.70
2007,11,15,17,19,8.70
2007,11,15,17,20,8.70
2007,11,15,17,21,8.70
2007,11,15,17,22,8.70
2007,11,15,17,23,8.70
2007,11,15,17,24,8.70
2007,11,15,17,25,8.70
2007,11,15,17,26,8.70
2007,11,15,17,27,8.70
2007,11,15,17,28,8.70
2007,11,15,17,29,8.70
2007,11,15,17,30,8.60
2007,11,15,17,31,8.60
2007,11,15,17,32,8.60
2007,11,15,17,33,8.60
2007,11,15,17,34,8.60
2007,11,15,17,35,8.60
2007,11,15,17,36,8.60
2007,11,15,17,37,8.60
2007,11,15,17,38,8.60
2007,11,15,17,39,8.60
2007,11,15,17,40,8.60
2007,11,15,17,41,8.60
2007,11,15,17,42,8.60